Weather History for Narsarsuaq, Greenland

Change the Weather History Date:

Friday, September 20, 2013

  Actual Average Record
Temperature  
Mean Temperature 40 °F -  
Max Temperature 47 °F 43 °F 54 °F (2012)
Min Temperature 32 °F 31 °F 28 °F (2004)
Degree Days  
Heating Degree Days 26    
Moisture  
Dew Point 30 °F    
Average Humidity 68    
Maximum Humidity 81    
Minimum Humidity 36    
Precipitation  
Precipitation 0.00 in 0.08 in - ()
Sea Level Pressure  
Sea Level Pressure 29.55 in    
Wind  
Wind Speed 5 mph ()    
Max Wind Speed 15 mph    
Max Gust Speed -    
Visibility 7.8 miles    
Events      
Averages and records for this station are not official NWS values.
T = Trace of Precipitation, MM = Missing Value Source: Averaged Metar Reports

Daily Weather History Graph

Daily Weather History Graph

Search for Another Location

Airport:

Trip Planner

Search our weather history database for the weather conditions in past years. The results will help you decide how hot, cold, wet, or windy it might be!

Date:

Astronomy

Sep. 20, 2013 Rise Set
Actual Time 6:41 AM WGST 7:07 PM WGST
Civil Twilight 5:57 AM WGST 7:50 PM WGST
Nautical Twilight 5:04 AM WGST 8:43 PM WGST
Astronomical Twilight 4:06 AM WGST 9:41 PM WGST
Moon 6:59 PM WGST (9/20) 8:18 AM WGST (9/20)
Length of Visible Light 13h 52m
Length of Day
12h 26m
Full, 98% of the Moon is Illuminated
Sep 20
Full
Sep 27
Last Quarter
Oct 4
New
Oct 11
First Quarter
Oct 18
Full

Hourly Weather History & Observations

Time (WGST) Temp. Windchill Dew Point Humidity Pressure Visibility Wind Dir Wind Speed Gust Speed Precip Events Conditions
12:50 AM 35.6 °F 31.7 °F 30.2 °F 81% 29.42 in 6.2 mi ENE 4.6 mph - N/A   Scattered Clouds
1:00 AM 35 °F - 30 °F 74% 29.43 in 28 mi NE 4.6 mph - -  
5:50 AM 35.6 °F 30.7 °F 26.6 °F 70% 29.47 in 6.2 mi East 5.8 mph - N/A   Partly Cloudy
6:50 AM 33.8 °F 29.6 °F 24.8 °F 70% 29.50 in 6.2 mi WSW 4.6 mph - N/A   Partly Cloudy
7:00 AM 32 °F - 23 °F 60% 29.51 in 28 mi WSW 4.6 mph - -  
7:50 AM 32.0 °F - 26.6 °F 80% 29.50 in 6.2 mi NNW 1.2 mph - N/A   Partly Cloudy
8:50 AM 33.8 °F 29.6 °F 28.4 °F 81% 29.50 in 6.2 mi WSW 4.6 mph - N/A   Scattered Clouds
9:50 AM 35.6 °F 31.7 °F 30.2 °F 81% 29.53 in 6.2 mi WNW 4.6 mph - N/A   Scattered Clouds
10:00 AM 35 °F - 30 °F 74% 29.54 in 28 mi West 3.5 mph - -   Partly Cloudy
10:50 AM 37.4 °F 33.8 °F 32.0 °F 81% 29.53 in 6.2 mi WNW 4.6 mph - N/A   Scattered Clouds
12:50 PM 42.8 °F 35.4 °F 30.2 °F 61% 29.56 in 6.2 mi WSW 15.0 mph - N/A   Partly Cloudy
1:00 PM 44 °F - 26 °F 36% 29.58 in 19 mi WSW 13.8 mph - -  
1:50 PM 44.6 °F 38.8 °F 33.8 °F 66% 29.56 in 6.2 mi West 11.5 mph - N/A   Partly Cloudy
2:50 PM 46.4 °F 41.9 °F 33.8 °F 62% 29.59 in 6.2 mi WSW 9.2 mph - N/A   Partly Cloudy
3:50 PM 44.6 °F 39.7 °F 33.8 °F 66% 29.59 in 6.2 mi West 9.2 mph - N/A   Partly Cloudy
4:00 PM 45 °F - 33 °F 53% 29.62 in 22 mi West 8.1 mph - -   Scattered Clouds
4:50 PM 44.6 °F 40.2 °F 33.8 °F 66% 29.62 in 6.2 mi WSW 8.1 mph - N/A   Scattered Clouds
5:50 PM 42.8 °F 38.6 °F 35.6 °F 76% 29.65 in 6.2 mi WSW 6.9 mph - N/A   Scattered Clouds
6:50 PM 42.8 °F 40.1 °F 33.8 °F 70% 29.65 in 6.2 mi SW 4.6 mph - N/A   Scattered Clouds
7:00 PM 42 °F - 33 °F 59% 29.67 in 19 mi SW 3.5 mph - -   Scattered Clouds